Weather History for Fullerton, CA

Change the Weather History Date:

Saturday, September 28, 2013

  Actual Average Record
Temperature  
Mean Temperature 74 °F 71 °F  
Max Temperature 93 °F 81 °F 99 °F (2005)
Min Temperature 54 °F 61 °F 54 °F (2013)
Degree Days  
Heating Degree Days 0 0  
Month to date heating degree days 0 0  
Since 1 July heating degree days 0 0  
Cooling Degree Days 9 6  
Month to date cooling degree days 344 243  
Year to date cooling degree days 1734 1106  
Growing Degree Days 23 (Base 50)    
Moisture  
Dew Point 36 °F    
Average Humidity 34    
Maximum Humidity 59    
Minimum Humidity 8    
Precipitation  
Precipitation 0.00 in 0.01 in 0.01 in (2001)
Month to date precipitation 0.00 0.21  
Year to date precipitation 2.53 9.95  
Since 1 July precipitation T 0.30  
Snow  
Snow 0.00 in - - ()
Month to date snowfall 0.0  
Year to date snowfall 0.0  
Since 1 July snowfall 0.0  
Snow Depth 0.00 in    
Sea Level Pressure  
Sea Level Pressure 29.98 in    
Wind  
Wind Speed 2 mph (WNW)    
Max Wind Speed 10 mph    
Max Gust Speed 16 mph    
Visibility 10 miles    
Events      
T = Trace of Precipitation, MM = Missing Value Source: NWS Daily Summary

Daily Weather History Graph

Daily Weather History Graph

Search for Another Location

Airport:

Trip Planner

Search our weather history database for the weather conditions in past years. The results will help you decide how hot, cold, wet, or windy it might be!

Date:

Astronomy

Sep. 28, 2013 Rise Set
Actual Time 6:44 AM PDT 6:39 PM PDT
Civil Twilight 6:19 AM PDT 7:04 PM PDT
Nautical Twilight 5:50 AM PDT 7:33 PM PDT
Astronomical Twilight 5:21 AM PDT 8:02 PM PDT
Moon 12:50 AM PDT (9/28) 2:48 PM PDT (9/28)
Length of Visible Light 12h 45m
Length of Day
11h 55m
Waning Crescent, 35% of the Moon is Illuminated
Sep 28
Waning Crescent
Oct 4
New
Oct 11
First Quarter
Oct 18
Full
Oct 26
Last Quarter

Hourly Weather History & Observations

Time (PDT) Temp. Dew Point Humidity Pressure Visibility Wind Dir Wind Speed Gust Speed Precip Events Conditions
12:53 AM 61.0 °F 41.0 °F 48% 29.97 in 10.0 mi Calm Calm - N/A   Clear
1:53 AM 60.1 °F 39.0 °F 46% 29.97 in 10.0 mi Calm Calm - N/A   Clear
2:53 AM 57.0 °F 39.9 °F 53% 29.97 in 10.0 mi Calm Calm - N/A   Clear
3:53 AM 57.9 °F 37.0 °F 46% 29.96 in 10.0 mi Calm Calm - N/A   Clear
4:53 AM 57.0 °F 39.9 °F 53% 29.97 in 10.0 mi Calm Calm - N/A   Clear
5:53 AM 55.9 °F 39.0 °F 53% 29.98 in 10.0 mi Calm Calm - N/A   Clear
6:53 AM 55.9 °F 41.0 °F 57% 29.99 in 10.0 mi Calm Calm - N/A   Clear
7:53 AM 61.0 °F 39.0 °F 44% 30.00 in 10.0 mi Calm Calm - N/A   Clear
8:53 AM 71.1 °F 35.1 °F 27% 30.01 in 10.0 mi Calm Calm - N/A   Clear
9:53 AM 77.0 °F 37.0 °F 24% 30.01 in 10.0 mi Calm Calm - N/A   Clear
10:53 AM 84.0 °F 28.9 °F 14% 30.01 in 10.0 mi Variable 3.5 mph - N/A   Clear
11:53 AM 88.0 °F 28.0 °F 12% 30.00 in 10.0 mi Variable 3.5 mph - N/A   Clear
12:53 PM 90.0 °F 23.0 °F 9% 29.98 in 10.0 mi NW 6.9 mph - N/A   Clear
1:53 PM 91.0 °F 23.0 °F 8% 29.95 in 10.0 mi WNW 5.8 mph - N/A   Clear
2:53 PM 91.9 °F 28.0 °F 10% 29.94 in 10.0 mi Variable 6.9 mph - N/A   Clear
3:53 PM 90.0 °F 30.9 °F 12% 29.93 in 10.0 mi Variable 5.8 mph - N/A   Clear
4:53 PM 88.0 °F 30.9 °F 13% 29.93 in 10.0 mi Variable 5.8 mph - N/A   Clear
5:53 PM 81.0 °F 39.9 °F 23% 29.94 in 10.0 mi WNW 8.1 mph 16.1 mph N/A   Clear
6:53 PM 77.0 °F 36.0 °F 23% 29.96 in 10.0 mi West 3.5 mph - N/A   Clear
7:53 PM 73.9 °F 35.1 °F 24% 29.97 in 10.0 mi Calm Calm - N/A   Clear
8:53 PM 70.0 °F 41.0 °F 35% 29.99 in 10.0 mi Calm Calm - N/A   Clear
9:53 PM 68.0 °F 42.1 °F 39% 30.01 in 10.0 mi Calm Calm - N/A   Clear
10:53 PM 66.9 °F 39.9 °F 37% 30.03 in 10.0 mi Calm Calm - N/A   Clear
11:53 PM 63.0 °F 43.0 °F 48% 30.03 in 10.0 mi Calm Calm - N/A   Clear